Weather History for Martinsburg, WV

Change the Weather History Date:

Monday, June 17, 2013

  Actual Average Record
Temperature  
Mean Temperature 76 °F 71 °F  
Max Temperature 87 °F 82 °F 98 °F (1934)
Min Temperature 65 °F 60 °F 44 °F (1961)
Degree Days  
Heating Degree Days 0 0  
Month to date heating degree days 2 22  
Since 1 June heating degree days 2 22  
Since 1 July heating degree days 4908 5247  
Cooling Degree Days 11 6  
Month to date cooling degree days 108 80  
Year to date cooling degree days 219 137  
Since 1 June cooling degree days 108 80  
Growing Degree Days 26 (Base 50)    
Moisture  
Dew Point 63 °F    
Average Humidity 61    
Maximum Humidity 81    
Minimum Humidity 40    
Precipitation  
Precipitation 0.00 in 0.13 in 1.40 in (1979)
Month to date precipitation 2.78 2.18  
Year to date precipitation 14.04 17.91  
Sea Level Pressure  
Sea Level Pressure 29.93 in    
Wind  
Wind Speed 4 mph (WSW)    
Max Wind Speed 12 mph    
Max Gust Speed 16 mph    
Visibility 10 miles    
Events      
T = Trace of Precipitation, MM = Missing Value Source: NWS Daily Summary

Daily Weather History Graph

Daily Weather History Graph

Search for Another Location

Airport:

Trip Planner

Search our weather history database for the weather conditions in past years. The results will help you decide how hot, cold, wet, or windy it might be!

Date:

Astronomy

Jun. 17, 2013 Rise Set
Actual Time 5:44 AM EDT 8:41 PM EDT
Civil Twilight 5:12 AM EDT 9:13 PM EDT
Nautical Twilight 4:31 AM EDT 9:54 PM EDT
Astronomical Twilight 3:43 AM EDT 10:42 PM EDT
Moon 2:19 PM EDT 1:17 AM EDT
Length of Visible Light 16h 01m
Length of Day
14h 56m
First Quarter, 60% of the Moon is Illuminated
Jun 17
First Quarter
Jun 23
Full
Jun 30
Last Quarter
Jul 8
New
Jul 15
First Quarter

Hourly Weather History & Observations

Time (EDT) Temp. Heat Index Dew Point Humidity Pressure Visibility Wind Dir Wind Speed Gust Speed Precip Events Conditions
12:53 AM 72.0 °F - 60.1 °F 66% 29.94 in 10.0 mi SW 3.5 mph - N/A   Clear
1:53 AM 72.0 °F - 60.1 °F 66% 29.94 in 10.0 mi SSW 4.6 mph - N/A   Clear
2:53 AM 71.1 °F - 59.0 °F 66% 29.94 in 10.0 mi SSW 3.5 mph - N/A   Clear
3:53 AM 71.1 °F - 59.0 °F 66% 29.94 in 10.0 mi SSW 4.6 mph - N/A   Clear
4:53 AM 68.0 °F - 60.1 °F 76% 29.95 in 10.0 mi Calm Calm - N/A   Clear
5:53 AM 66.0 °F - 60.1 °F 81% 29.95 in 10.0 mi Calm Calm - N/A   Partly Cloudy
6:53 AM 66.9 °F - 61.0 °F 81% 29.95 in 10.0 mi Calm Calm - N/A   Clear
7:53 AM 70.0 °F - 63.0 °F 78% 29.96 in 10.0 mi SSW 3.5 mph - N/A   Clear
8:53 AM 73.9 °F - 64.9 °F 73% 29.96 in 10.0 mi Variable 3.5 mph - N/A   Clear
9:53 AM 77.0 °F - 64.0 °F 64% 29.96 in 10.0 mi SSW 5.8 mph - N/A   Mostly Cloudy
10:53 AM 80.1 °F 81.7 °F 64.0 °F 58% 29.95 in 10.0 mi SW 8.1 mph - N/A   Mostly Cloudy
11:53 AM 80.1 °F 81.7 °F 64.0 °F 58% 29.95 in 10.0 mi Variable 5.8 mph - N/A   Scattered Clouds
12:12 PM 80.6 °F 82.3 °F 64.4 °F 58% 29.96 in 2.5 mi WSW 4.6 mph - N/A   Haze
12:21 PM 80.6 °F 82.3 °F 64.4 °F 58% 29.96 in 10.0 mi SW 6.9 mph - N/A   Mostly Cloudy
12:53 PM 84.0 °F 86.3 °F 66.0 °F 55% 29.94 in 10.0 mi West 6.9 mph - N/A   Scattered Clouds
1:53 PM 82.9 °F 84.6 °F 64.9 °F 54% 29.93 in 10.0 mi NW 5.8 mph - N/A   Mostly Cloudy
2:53 PM 84.9 °F 86.6 °F 64.9 °F 51% 29.92 in 10.0 mi WNW 5.8 mph - N/A   Partly Cloudy
3:53 PM 84.9 °F 86.1 °F 64.0 °F 49% 29.91 in 10.0 mi West 4.6 mph - N/A   Clear
4:53 PM 87.1 °F 87.0 °F 61.0 °F 41% 29.88 in 10.0 mi NW 8.1 mph - N/A   Clear
5:53 PM 84.9 °F 85.0 °F 61.0 °F 44% 29.89 in 10.0 mi NW 6.9 mph - N/A   Clear
6:53 PM 84.0 °F 84.4 °F 61.0 °F 46% 29.89 in 10.0 mi NW 6.9 mph - N/A   Clear
7:53 PM 82.9 °F 83.7 °F 62.1 °F 49% 29.89 in 10.0 mi Calm Calm - N/A   Clear
8:53 PM 73.9 °F - 64.9 °F 73% 29.91 in 10.0 mi Calm Calm - N/A   Clear
9:53 PM 72.0 °F - 64.0 °F 76% 29.92 in 10.0 mi Calm Calm - N/A   Clear
10:53 PM 72.0 °F - 64.0 °F 76% 29.93 in 10.0 mi South 4.6 mph - N/A   Clear
11:53 PM 72.0 °F - 64.9 °F 78% 29.93 in 10.0 mi Calm Calm - N/A   Clear